Location: Stuttgart
(48.8069°N, 9.1544°E)
Time: 14:27:49
(UTC+01:00)

ISS - Pass Details

Date: 10 January 2018
Orbit: 402 x 406 km, 51.6° (Epoch: 16 January)

Event Time Altitude Azimuth Distance (km) Brightness Sun altitude
Exits shadow 04:59:59 11° 77° (ENE) 1,392 -0.3 -31.1°
Drops below altitude 10° 05:00:10 10° 78° (ENE) 1,466 -0.2 -31.1°
Sets 05:02:18 0° 84° (E) 2,327 1.2 -30.8°
